Regional Weather Roundup
Issued by NWS Charleston, SC

Current Version | Previous Version | Graphics & Text | Print | Product List | Glossary On
Versions: 1 2 3 4 5 6 7 8 9 10 11 12 13 14 15 16 17 18 19 20 21 22 23 24 25 26 27 28 29 30 31 32 33 34 35 36 37 38 39 40 41 42 43 44 45 46 47 48 49 50
000
ASUS42 KCHS 310427
RWRCHS

REGIONAL WEATHER ROUNDUP
NATIONAL WEATHER SERVICE CHARLESTON SC
1200 AM EDT FRI JUL 31 2015

NOTE: "FAIR" INDICATES FEW OR NO CLOUDS BELOW 12,000 FEET WITH NO
SIGNIFICANT WEATHER AND/OR OBSTRUCTIONS TO VISIBILITY.

NOT ALL STATIONS ARE QUALITY CONTROLLED BY THE NATIONAL
WEATHER SERVICE. USE DATA WITH CAUTION...ESPECIALLY
DEWPOINT OBSERVATIONS.

SCZ027-030-031-034>040-042>050-310500-
...SOUTHEAST SOUTH CAROLINA...

CITY           SKY/WX    TMP DP  RH WIND       PRES   REMARKS
N CHARLESTON   MOCLDY    83  72  69 SW6       29.91F
WATERFRONT PRK   N/A     85  75  71 VRB3      29.90S HX  93
MOUNT PLEASANT   N/A     77  75  94 CALM      29.92S FOG
JOHNS ISLAND   FAIR      82  77  83 CALM      29.92S HX  91
PINOPOLIS      NOT AVBL
MONCKS CORNER  FAIR      81  75  83 CALM      29.92S
SUMMERVILLE    NOT AVBL
BEAUFORT MCAS  CLOUDY    85  74  69 S5        29.93S HX  92
BEAUFORT ARPT  CLOUDY    81  73  78 S8        29.92S
HILTON HEAD IS MOCLDY    82  73  74 S9G16     29.94S
WALTERBORO     PTCLDY    81  77  89 SW3       29.93S
ALLENDALE      MOCLDY    81  77  89 CALM      29.91F

...SOUTHERN MIDLANDS AND PEE DEE...

CITY           SKY/WX    TMP DP  RH WIND       PRES   REMARKS
GEORGETOWN     NOT AVBL
KINGSTREE      NOT AVBL
ORANGEBURG     LGT RAIN  78  74  87 CALM      29.93S
BARNWELL       FAIR      79  79 100 CALM      29.93F
AIKEN          FAIR      77  72  83 CALM      29.96F
MANNING        FAIR      79  72  78 CALM      29.92S
COLUMBIA       PTCLDY    82  73  74 S3        29.91S
SUMTER         MOCLDY    79  73  82 S6        29.90R
FLORENCE       MOCLDY    84  75  74 SE7       29.91S HX  92
MYRTLE BEACH   CLOUDY    84  72  65 SW3       29.93S
N MYRTLE BEACH PTCLDY    79  76  90 CALM      29.91F

$$

GAZ063-065-086>088-099>101-113>116-118-119-134>141-150-310500-
...SOUTHEAST GEORGIA...

CITY           SKY/WX    TMP DP  RH WIND       PRES   REMARKS
SAVANNAH ARPT  CLOUDY    79  73  82 SW7       29.93F
HUNTER AAF     MOCLDY    82  77  83 W5        29.91S HX  91
FORT STEWART   MOCLDY    83  74  75 SW6       29.92S HX  90
STATESBORO     MOCLDY    80  77  90 SW5       29.93F
SYLVANIA       MOCLDY    84  76  77 W5        29.94F HX  93
CLAXTON        MOCLDY    82  77  83 NW3       29.95R HX  91

...CSRA...CENTRAL AND FAR SOUTHEAST GEORGIA...

CITY           SKY/WX    TMP DP  RH WIND       PRES   REMARKS
THOMSON        CLEAR     80  77  92 CALM      29.97S
AUGUSTA-BUSH   PTCLDY    78  75  90 CALM      29.91F
AUGUSTA-DANIEL PTCLDY    82  74  76 SE3       29.93F
SWAINSBORO     FAIR      82  82 100 CALM      29.95S HX  97
VIDALIA        HAZE      81  75  83 CALM      29.95S VSB 1/4
EASTMAN        FAIR      78  78 100 CALM      29.97F
HAZLEHURST     FAIR      82  77  86 CALM      29.94S
ALMA           PTCLDY    79  75  87 S5        29.96R
WAYCROSS       PTCLDY    82  80  94 SW5       29.95F HX  92
JESUP          FAIR      82  77  83 S3        29.95S HX  91
BAXLEY         FAIR      81  75  83 CALM      29.94F
BRUNSWICK      PTCLDY    81  75  83 SW6       29.95F
SAINT SIMONS   PTCLDY    82  74  76 SW10      29.95S

$$

SCZ027-028-034-036>038-045-046-048>050-GAZ119-141-310500-
...LAKE AND SUPPLEMENTAL COASTAL OBSERVATIONS...

STATION/POSITION TIME  TEMP    WIND        PRES    WAVE   SWELL
                       AIR SEA DIR/SP/G            HT/PER HT/PER/DIR
                 (UTC) (F)     (DEG/KT/KT) (MB)    (FT/S) (FT/S/D)
UPR LAKE MARION  NOT AVBL
WINYAH BAY       0345   82     230/  5     1012.0S
LAKE MURRAY      0300   86     230/  2/  2 1012.2R
ACE BASIN NERRS  NOT AVBL
FORT PULASKI     0400   83 87  350/  4/  6 1014.4R
SAPELO ISLAND    0400   83     210/  8     1014.0S

$$

ANZ835-935-AMZ111-154-330-350-352-354-370-450-454-472-310500-
...C-MAN AND BUOY OBSERVATIONS...

STATION/POSITION TIME  TEMP    WIND        PRES    WAVE   SWELL
                       AIR SEA DIR/SP/G            HT/PER HT/PER/DIR
                 (UTC) (F)     (DEG/KT/KT) (MB)    (FT/S) (FT/S/D)
BUOY 41004       0350   85 85  250/ 12/ 14 1012.7F   3/ 8   2/ 8
BUOY 41008       0350   83 83  210/ 14/ 17 1014.0S   2/ 8   2/100/ 8
FOLLY BEACH CMAN 0400   84     230/  6/  8 1013.3F
CAPERS NEARSHORE 0308   83     220/ 14/ 17 1013.4R
FRIPP NEARSHORE  0300   84     250/ 12/ 16 1013.5


STATION/POSITION TIME  TEMP    WIND        PRES    WAVE   SWELL
                       AIR SEA DIR/SP/G            HT/PER HT/PER/DIR
                 (UTC) (F)     (DEG/KT/KT) (MB)    (FT/S) (FT/S/D)
5E ST. MARYS GA  0321      84                N/A     2/ 3
FRYING PAN BUOY  0350   84 85  260/  4/  6 1012.9F   4/ 8   3/130/ 8
BUOY 41025       0350   83 86  160/ 16/ 17 1012.9F   5/ 8   3/180/ 8
CAPE LOOKOUT NC  0400   82     140/  5/  6 1011.9F
BUOY 41002       0350   83 81  220/ 19/ 23 1013.7F  11/ 9
BUOY 41010       0320   83 84  250/ 16/ 17 1015.4S
ST AUGUSTINE FL  0400   78 82  220/  5/  6 1016.0R


$$


USA.gov is the U.S. government's official web portal to all federal, state and local government web resources and services.